GFSNIL_con_mlcape_000.txt.gz
CAPE
0 0 0 0 0 0 0 0 0 0 0 4 27 17 27 32 7 0 1 57 43 28
0 0 0 0 0 0 0 0 0 0 0 10 16 15 25 35 30 4 4 57 89 60
1 0 0 0 0 0 0 0 0 0 1 4 15 18 26 39 40 31 30 54 99 73
3 0 0 0 0 0 0 0 0 0 0 0 0 30 26 27 34 22 20 45 71 40
2 0 0 0 0 0 0 0 0 0 1 0 2 19 17 26 41 9 9 28 38 34
0 0 0 0 0 0 0 0 0 0 0 0 1 9 8 3 8 8 4 2 8 12
0 0 0 0 0 0 0 0 0 0 0 0 5 0 0 0 0 1 1 3 1 2
0 0 0 0 0 0 0 0 0 0 0 0 0 0 0 0 0 1 0 1 0 0
0 0 0 0 0 0 0 0 0 0 0 0 0 0 0 0 0 1 1 1 0 0
0 0 0 0 0 0 0 0 0 0 0 0 0 0 0 0 0 1 2 0 0 1
0 0 0 0 0 0 0 0 0 0 0 0 0 0 1 2 1 1 1 0 0 0
0 0 0 0 0 0 0 0 0 0 0 0 0 0 0 7 0 0 1 1 3 6
0 0 0 0 0 0 0 0 0 0 0 0 0 0 0 1 7 10 14 8 0 3
0 0 0 0 0 0 0 0 0 0 0 0 0 0 0 0 0 4 8 3 0 0

GFSNIL_con_mlcape_003.txt.gz
CAPE
10 0 0 0 0 0 15 16 0 0 23 123 95 132 91 115 90 59 73 124 153 234
4 0 0 0 0 0 0 0 0 2 62 68 92 107 94 154 167 106 99 242 122 43
53 0 0 0 0 0 0 0 0 0 34 54 134 158 263 191 219 184 212 155 262 224
60 12 0 0 0 0 0 0 0 0 16 40 128 264 143 121 69 57 168 309 152 187
68 23 0 0 0 0 0 0 0 39 43 41 107 186 160 69 14 19 62 74 82 116
24 24 13 0 0 0 0 0 0 102 69 78 96 139 131 125 25 24 31 99 62 147
0 0 0 0 0 0 0 0 89 138 76 82 68 18 58 46 4 13 22 50 84 127
0 0 0 0 0 13 15 21 70 90 61 74 29 2 5 8 4 21 14 61 70 114
0 0 0 0 0 16 11 48 102 61 40 55 2 0 0 0 5 43 76 55 38 13
0 0 0 0 0 0 3 63 61 54 100 107 0 0 0 0 8 7 37 71 23 13
0 0 0 0 0 0 0 15 18 37 138 89 1 0 0 0 5 4 3 70 82 7
0 0 0 0 0 0 0 0 1 33 46 48 0 0 1 16 2 3 6 45 54 49
0 0 0 0 0 0 0 0 0 2 52 26 3 0 0 45 51 25 21 5 0 2
0 0 0 0 0 0 0 0 0 0 0 6 4 0 0 2 3 38 37 20 26 6

GFSNIL_con_mlcape_006.txt.gz
CAPE
280 43 10 82 29 45 55 15 108 155 218 289 280 344 467 487 319 303 410 430 339 286
220 50 49 61 37 29 7 17 64 106 140 183 134 208 375 288 355 304 317 451 575 487
176 106 78 42 15 6 4 7 24 54 114 190 201 194 346 403 330 376 337 401 408 471
175 92 83 57 9 2 5 6 1 15 77 81 167 323 364 297 246 241 365 551 503 575
111 114 76 47 37 1 5 2 0 27 11 26 148 232 282 200 76 173 341 227 523 557
113 60 65 69 46 8 2 0 2 44 5 93 187 264 276 171 36 25 297 315 497 566
25 107 106 28 8 11 10 5 85 70 92 113 86 171 167 56 5 113 301 210 394 411
45 51 4 5 14 17 26 82 124 94 93 117 99 92 68 46 244 174 83 136 134 167
0 0 28 22 36 56 63 56 56 54 70 81 7 0 0 59 149 228 229 163 28 37
0 0 7 22 43 79 84 106 84 94 118 134 0 0 0 0 65 272 198 221 137 27
2 16 83 117 68 95 168 247 296 257 229 180 0 0 0 0 94 267 172 152 83 89
3 1 0 10 178 181 202 258 240 308 297 190 0 0 0 1 0 130 105 149 136 96
1 0 1 16 18 203 122 69 90 267 288 55 2 0 3 2 2 40 56 90 31 3
1 0 54 164 28 63 10 0 31 263 192 89 4 0 0 1 95 47 51 41 15 0

GFSNIL_con_mlcape_009.txt.gz
CAPE
361 184 86 121 35 161 126 35 67 168 297 506 484 442 496 439 382 441 516 649 595 301
326 103 346 238 203 124 22 53 45 101 272 340 281 315 509 628 517 596 629 519 675 662
151 159 230 164 73 10 23 19 10 58 72 148 172 222 460 707 716 579 534 466 687 630
162 73 174 117 19 19 15 9 12 32 44 48 90 349 514 589 455 299 417 497 513 639
168 203 198 103 6 16 9 6 23 27 40 36 122 279 454 254 190 332 440 569 469 503
83 210 177 89 11 9 5 11 19 27 23 58 165 334 170 191 201 346 457 475 517 499
115 70 221 15 18 17 6 7 25 23 27 54 119 213 217 36 202 255 271 319 476 444
115 90 29 21 19 22 18 25 26 23 36 65 117 103 268 283 255 65 158 310 346 177
26 22 28 21 17 19 26 25 21 18 37 58 20 0 0 64 221 120 121 72 14 13
11 15 31 33 13 26 27 14 18 26 67 130 0 0 0 0 368 336 270 138 80 33
32 69 37 43 106 193 396 354 330 157 172 115 0 0 0 0 354 312 223 212 126 47
94 104 144 126 234 338 594 628 405 377 285 108 0 0 0 0 174 95 150 173 128 89
80 71 47 122 314 348 390 330 337 316 279 31 0 0 0 0 66 188 76 109 71 8
119 91 275 129 178 193 129 117 395 343 196 72 47 0 0 0 137 133 73 29 20 1

GFSNIL_con_mlcape_012.txt.gz
CAPE
588 304 555 25 310 215 84 9 19 10 72 410 468 469 448 261 310 385 258 221 348 134
465 448 378 102 312 89 4 11 21 36 216 312 254 228 189 100 296 395 597 312 377 210
215 406 372 177 114 10 8 21 10 40 65 50 140 128 176 70 508 226 331 526 448 293
172 143 84 67 16 20 0 0 0 25 16 27 51 203 320 209 497 389 400 522 418 610
252 74 168 105 10 6 1 0 7 21 23 63 91 268 196 369 170 381 388 471 298 429
132 141 155 38 8 6 5 0 20 11 40 53 302 72 77 186 181 345 341 355 334 147
138 88 139 31 7 10 1 6 9 33 33 83 170 210 101 108 196 88 123 138 161 173
154 48 61 13 19 7 11 12 24 21 34 111 112 39 160 258 49 72 55 83 76 60
126 167 13 6 13 7 19 18 20 32 31 100 0 0 0 106 47 66 70 22 77 48
94 80 9 13 11 14 20 20 29 21 95 7 0 0 0 25 110 118 67 33 16 33
100 28 11 18 17 9 2 11 25 20 137 14 0 0 0 0 235 193 101 34 19 34
111 41 21 10 73 34 37 17 77 249 167 12 0 0 0 72 165 137 92 43 53 16
172 174 47 233 282 130 123 75 115 328 74 2 0 0 0 0 109 106 55 32 4 0
215 296 254 325 326 221 173 114 244 99 37 13 0 0 0 0 12 21 28 0 0 0

GFSNIL_con_mlcape_015.txt.gz
CAPE
179 140 68 27 141 100 53 8 0 0 0 86 234 283 260 194 122 154 134 91 44 95
120 140 211 20 0 0 0 0 0 0 5 74 198 117 104 36 43 138 104 90 128 80
294 162 47 19 14 0 0 3 0 0 4 16 76 74 58 8 97 119 78 264 276 101
129 83 5 7 0 0 0 0 2 0 9 13 16 23 29 41 67 122 147 180 164 139
101 69 11 0 3 0 0 0 0 5 15 39 56 20 11 39 83 233 87 67 126 163
112 55 28 1 4 0 0 0 7 21 23 20 19 50 29 111 129 173 61 96 83 156
176 79 8 0 3 0 0 0 19 24 67 65 140 103 64 154 56 76 63 100 121 113
162 36 8 9 8 6 1 9 27 25 70 2 1 28 95 35 26 13 26 30 53 64
20 36 15 21 15 4 16 21 16 31 0 0 0 0 9 33 38 18 25 23 10 4
140 3 2 8 15 14 19 16 26 22 0 0 0 0 0 6 67 15 8 3 16 3
82 6 7 7 9 14 17 18 26 26 0 0 0 0 0 36 96 55 20 9 5 0
64 2 22 11 15 13 2 29 14 38 0 0 0 0 0 106 35 7 8 11 1 0
54 14 14 4 0 25 11 17 31 47 0 0 0 0 0 17 13 0 0 0 0 0
75 90 146 122 28 28 61 67 31 11 0 0 0 0 0 0 0 0 0 0 0 0

GFSNIL_con_mlcape_021.txt.gz
CAPE
465 438 368 279 201 194 98 1 0 0 0 0 0 0 6 7 19 9 15 37 6 0
276 276 234 120 33 0 0 0 0 0 0 0 0 1 28 39 31 30 30 49 15 0
43 21 10 8 4 0 0 0 0 0 0 0 0 12 20 20 0 4 22 40 35 2
0 0 0 0 0 0 0 0 0 0 0 0 6 7 10 4 2 0 13 8 39 61
0 0 0 0 0 0 0 0 0 0 0 8 5 4 11 18 36 18 22 32 70 77
0 0 0 0 0 0 0 0 0 0 3 19 7 10 14 44 30 40 37 35 25 56
8 9 0 0 0 0 0 0 0 20 27 24 43 40 55 48 30 22 37 62 56 52
38 4 0 0 0 0 0 0 22 33 17 0 0 2 29 14 14 30 11 38 55 64
41 0 4 1 0 0 0 10 35 25 3 0 0 0 0 26 26 25 18 30 27 12
0 0 8 2 0 5 8 13 32 10 0 0 0 0 0 19 17 7 12 8 8 1
0 0 6 7 3 1 13 16 17 0 0 0 0 0 0 10 6 8 4 1 2 0
0 0 0 0 3 3 4 11 6 0 0 0 0 1 13 34 7 5 3 1 1 1
0 0 0 0 0 0 0 0 0 0 0 0 0 0 0 5 6 1 1 4 0 0
0 0 0 0 0 0 0 0 0 0 0 0 0 0 0 0 0 0 0 0 0 0

GFSNIL_con_mlcape_024.txt.gz
CAPE
320 341 251 300 270 224 193 135 2 4 0 0 0 0 0 0 0 0 0 0 0 0
255 300 206 69 53 42 5 0 0 0 0 0 0 0 0 0 14 13 4 1 0 0
225 154 62 40 45 2 0 0 0 0 0 0 0 0 0 8 10 13 1 2 0 0
32 23 8 2 0 0 0 0 0 0 0 0 0 0 0 1 5 7 0 1 3 31
0 0 4 0 0 0 0 0 0 0 0 0 0 0 0 4 22 2 0 10 0 60
0 0 0 0 0 0 0 0 0 0 0 3 0 0 11 23 45 7 1 13 30 75
0 0 0 0 0 0 0 0 0 4 5 0 8 30 51 49 28 20 14 33 29 44
2 0 0 0 0 0 0 0 16 20 0 0 0 1 11 10 20 24 12 35 29 24
26 0 0 0 0 0 0 2 30 16 0 0 0 0 0 6 29 10 12 13 10 2
16 0 4 0 0 0 0 25 25 2 0 0 0 0 4 0 10 10 15 6 2 0
0 0 8 2 0 1 14 16 19 0 0 0 0 0 0 1 5 4 1 1 0 0
0 0 5 6 4 0 14 10 12 0 0 0 0 0 0 1 3 2 1 1 1 0
0 0 0 0 0 0 6 8 0 0 0 0 0 0 0 1 1 0 0 0 0 0
0 0 0 0 0 0 0 0 0 0 0 0 0 0 0 0 1 0 0 1 0 0

GFSNIL_con_mlcape_027.txt.gz
CAPE
746 852 950 1032 814 619 662 659 568 568 481 189 3 0 35 118 174 205 164 153 169 176
636 824 874 669 575 499 460 448 378 235 63 0 0 1 77 207 211 265 195 226 271 259
562 511 467 448 411 406 335 220 120 19 2 0 0 65 209 182 176 327 300 262 226 266
329 299 316 322 291 238 101 31 1 0 0 0 37 136 111 103 141 90 300 178 203 278
197 185 203 167 115 26 0 0 0 0 0 11 25 72 63 64 59 62 206 158 135 247
77 87 87 66 12 0 0 0 0 0 12 63 117 150 144 8 23 67 254 258 235 292
44 36 24 4 0 0 0 0 0 21 87 204 204 188 89 72 40 49 199 257 335 342
29 31 9 1 0 0 0 3 160 168 126 66 87 1 44 140 56 23 97 144 323 338
36 15 11 0 0 0 1 55 127 33 9 9 6 0 0 6 47 37 42 34 79 25
81 34 15 1 0 4 24 33 36 32 0 0 29 0 0 0 20 21 21 9 10 3
45 11 13 13 8 19 32 36 34 20 0 1 1 0 0 4 14 8 2 2 6 3
10 9 13 17 19 24 20 23 32 11 0 17 5 0 0 3 3 2 2 1 0 0
11 7 15 23 20 28 33 22 21 0 0 0 4 0 0 5 2 1 1 2 1 0
29 18 18 22 24 27 3 18 3 0 0 0 0 0 0 0 2 3 3 0 0 0

GFSNIL_con_mlcape_030.txt.gz
CAPE
1689 1673 1722 1624 1625 1602 1584 1512 1506 1481 1373 1275 1250 941 594 244 142 174 280 325 276 245
1690 1736 1761 1718 1566 1412 1352 1390 1324 1310 1232 948 571 367 365 42 176 267 433 457 423 465
1820 1765 1635 1323 1071 992 1052 979 1072 910 604 305 175 183 288 140 332 453 508 441 446 482
1355 1231 1100 1044 1016 960 912 776 532 314 194 60 88 214 435 493 446 415 549 357 360 370
993 913 879 828 772 598 390 221 97 14 5 27 184 327 292 278 258 300 122 305 234 254
875 819 704 537 346 211 139 18 0 10 43 48 126 313 402 352 239 25 176 315 241 184
585 538 435 255 118 48 6 10 21 39 39 113 267 388 530 145 404 398 349 349 325 291
213 196 141 90 56 35 5 10 39 77 135 293 453 114 342 389 419 40 298 430 420 401
100 117 121 125 89 12 23 76 100 204 98 253 34 0 0 40 69 331 273 410 386 416
83 95 99 32 37 19 73 63 172 173 42 243 288 0 0 0 33 93 123 108 107 95
51 25 20 10 27 72 31 92 162 178 244 380 11 0 0 11 48 15 15 52 72 84
31 21 27 19 47 84 35 87 113 170 310 324 48 0 0 9 8 2 1 0 10 23
29 8 18 32 37 54 101 62 88 179 251 10 55 0 0 5 4 1 2 3 2 0
62 26 23 34 51 23 59 46 126 156 208 67 52 0 0 3 3 3 2 1 2 0

GFSNIL_con_mlcape_033.txt.gz
CAPE
2015 2001 2255 1613 1284 1425 1387 1500 1425 1567 1805 1698 1473 1136 1176 1016 764 413 319 298 231 309
1875 2005 1641 1976 1902 1731 1893 1818 1707 1681 1511 1302 1065 1094 1117 476 303 235 305 478 475 405
2190 2323 1972 2044 1656 1715 1877 1700 1644 1367 1204 1020 886 750 484 153 210 277 487 486 610 471
1822 1648 1639 1439 1466 1318 1293 1098 959 850 791 652 415 256 272 458 374 344 635 573 434 418
1706 1510 1381 1130 1034 897 801 696 594 455 310 144 99 239 394 429 350 396 440 515 277 252
1200 1146 1067 896 732 589 443 261 157 61 19 30 112 284 462 438 418 468 257 211 266 193
996 877 732 530 388 244 144 61 49 56 48 44 123 280 508 461 233 371 62 485 352 173
592 495 312 210 136 92 68 50 30 23 149 224 504 271 543 583 517 392 318 358 455 418
87 63 88 106 136 94 12 19 58 33 165 518 0 0 0 250 408 154 99 384 405 453
104 87 145 91 86 24 78 64 179 136 158 474 0 0 0 3 237 351 279 440 495 398
46 74 88 104 22 99 189 276 443 309 463 425 0 0 0 9 88 78 115 142 234 260
46 41 23 10 21 132 180 309 388 368 462 412 2 0 0 23 9 1 2 27 61 48
49 43 32 40 51 114 103 222 215 342 361 54 3 0 0 7 0 1 0 0 0 0
7 32 27 34 47 30 44 37 207 329 308 77 46 0 0 2 1 2 4 1 1 1

GFSNIL_con_mlcape_036.txt.gz
CAPE
1014 2698 2708 2167 1609 1396 1257 1169 1135 1207 1357 1362 1184 1627 1378 1009 758 778 605 483 241 293
2046 2306 2438 1957 1380 1182 1073 1129 1111 1642 1337 1614 1453 1166 888 809 606 632 374 321 439 268
2425 2530 2095 1666 1357 1653 1762 1696 1364 1744 1483 1225 1060 996 798 687 348 400 279 377 260 266
2411 2271 2191 2149 2071 2070 1811 1758 1583 1357 1117 947 840 696 475 374 388 348 347 88 14 263
1761 1675 1704 1586 1559 1624 1481 1417 1259 1016 632 598 501 387 351 229 434 293 301 86 24 365
1400 1140 1087 1109 1159 1068 920 794 518 392 331 183 184 180 279 410 348 256 312 106 64 186
1192 1072 998 905 770 555 383 219 146 101 76 158 318 326 485 413 249 385 220 283 112 121
724 743 706 542 348 235 96 81 84 194 157 346 164 324 449 561 540 172 109 45 87 139
701 518 412 248 65 90 119 113 89 89 297 149 0 0 0 128 309 106 35 7 150 75
191 178 54 40 60 129 124 29 8 146 205 258 0 0 0 20 300 109 144 289 177 219
78 50 57 41 157 99 111 158 183 244 314 7 0 0 0 53 181 286 162 309 258 200
100 45 37 75 151 120 114 183 359 344 419 1 0 0 3 30 15 40 40 19 61 88
57 17 173 122 103 106 52 315 223 289 309 0 0 0 0 0 0 0 0 3 0 0
23 17 93 64 131 84 134 205 249 328 87 27 0 0 0 0 4 1 1 0 0 0

GFSNIL_con_mlcape_042.txt.gz
CAPE
0 0 0 0 75 310 931 1219 1281 1331 1308 1284 1075 966 1005 884 753 575 403 411 373 293
0 0 0 28 411 624 1000 1077 1067 1033 913 839 893 991 869 793 721 581 444 352 252 48
15 24 216 555 717 929 1200 1180 987 742 712 840 822 881 872 793 726 661 401 226 86 23
458 607 620 553 675 977 1214 1047 781 692 732 719 849 814 824 704 475 366 294 126 49 21
704 892 1009 1296 1428 1203 1005 802 762 800 838 866 837 718 552 336 334 300 256 44 0 8
1477 1381 1660 1529 1209 881 787 776 852 1044 921 861 744 537 297 199 150 162 115 42 3 0
1591 1702 1524 1229 1122 1132 1128 899 912 757 654 574 466 236 106 10 46 97 133 139 109 11
1484 1401 1148 1214 1168 1037 839 560 362 291 221 167 110 63 22 125 144 128 123 98 67 21
1146 981 761 506 382 384 169 84 21 7 6 10 14 5 132 175 48 105 74 41 14 8
672 540 265 70 20 0 0 0 0 6 11 1 0 0 0 0 9 16 4 2 2 11
371 200 55 21 0 0 11 14 18 2 0 0 0 0 0 26 2 0 0 8 8 10
34 0 4 8 12 17 54 31 5 1 0 0 0 0 0 20 0 0 7 21 18 9
3 9 7 29 24 15 11 9 3 0 0 0 0 0 0 0 6 18 17 0 0 0
4 13 31 25 14 12 18 5 0 0 0 0 0 0 0 1 4 10 3 0 0 0

GFSNIL_con_mlcape_045.txt.gz
CAPE
24 0 0 0 0 0 0 43 165 825 1124 1054 1098 1074 942 851 850 735 543 345 343 350
0 0 0 0 0 0 39 171 712 1108 1255 1189 1173 1108 841 819 809 565 429 297 244 207
0 0 0 0 0 62 232 597 944 1217 1201 1117 951 828 801 755 516 458 370 310 222 116
0 0 0 2 81 255 595 792 1070 1075 919 788 762 749 669 544 487 486 403 213 150 64
0 24 196 366 611 656 622 926 1019 938 742 718 716 579 620 571 525 451 221 135 69 20
505 556 576 596 608 767 1006 1080 920 755 715 663 577 584 600 527 258 180 177 106 31 1
758 668 972 1125 1219 1211 995 843 749 707 707 714 632 595 330 143 43 64 61 19 0 0
1105 1362 1450 1599 1243 877 806 770 746 798 710 683 544 308 65 1 1 3 33 29 23 10
1414 1370 1416 1196 901 922 712 726 642 445 335 240 26 0 0 1 8 21 33 38 6 14
1031 952 885 781 765 686 330 167 86 40 8 0 0 0 0 35 62 12 0 0 0 0
613 637 551 471 393 223 36 0 0 0 0 2 0 0 0 0 0 0 0 0 2 0
387 191 102 83 16 0 0 0 0 1 0 0 0 0 0 0 0 0 0 0 0 6
192 100 13 0 0 0 0 7 0 0 0 0 0 0 0 0 0 0 10 0 0 0
0 0 0 2 13 19 10 0 0 0 0 0 0 0 0 0 9 5 1 7 0 0

GFSNIL_con_mlcape_048.txt.gz
CAPE
1 51 187 164 152 138 17 0 0 29 152 207 503 465 471 645 627 548 633 603 455 405
0 0 3 82 92 71 0 0 1 129 104 641 815 782 797 782 761 688 623 520 391 310
0 0 0 4 59 6 0 6 48 188 540 1069 1060 963 867 820 656 681 413 342 242 184
0 0 0 0 0 0 38 92 258 446 1105 1206 1160 1020 856 664 611 400 406 258 234 140
0 0 0 0 0 27 96 400 519 909 1194 1156 1000 724 676 619 388 427 367 292 173 80
0 0 0 0 42 217 382 642 914 1146 1165 955 764 711 586 487 453 470 427 191 47 15
0 0 3 162 534 750 843 848 1025 1112 1013 808 707 601 543 521 455 269 131 61 16 0
178 388 603 728 803 892 1037 1132 1114 964 803 727 626 603 579 232 81 46 40 35 0 0
854 946 978 1077 1252 1312 1207 1004 847 794 799 737 539 397 130 25 0 0 3 17 0 0
1061 1312 1259 1240 1141 926 813 785 788 713 706 483 129 0 0 0 0 0 0 6 11 17
1264 1169 1064 863 711 631 617 620 410 229 68 0 0 0 0 1 0 0 0 0 0 4
835 780 593 605 497 296 169 57 0 0 0 0 0 0 0 0 0 0 0 0 0 0
412 416 340 286 171 10 0 0 0 0 0 0 0 0 0 0 0 0 0 0 0 0
229 245 147 60 0 0 0 0 0 0 0 0 0 0 0 0 0 0 2 5 2 0